Tracking 29892 objects as of 21-Nov-2024
HD Live streaming from Space Station
objects crossing your sky now

CZ-6A DEB

Track CZ-6A DEB now!
10-day predictions


NORAD ID: 54318
Int'l Code: 2022-151BM
Perigee: 828.5 km
Apogee: 904.9 km
Inclination: 98.8 °
Period: 102.1 minutes
Semi major axis: 7237 km
RCS: Unknown
Launch date: November 11, 2022
Source: People's Republic of China (PRC)
Launch site: Taiyaun Space Center, China (TSC)

Note: This is SATELLITE DEBRIS
Your satellite tracking list
Your tracking list is empty




NASA's NSSDC Master Catalog

Two Line Element Set (TLE):
1 54318U 22151BM  24325.46249351  .00001693  00000-0  97279-3 0  9998
2 54318  98.8268 323.8485 0052761 161.3240 198.9882 14.09944687103501
Source of the keplerian elements: AFSPC